Location: �bnet
(46.9957°N, 8.4908°E)
Time: 08:56:37
(UTC+00:00)

Cosmos 1777 Rocket - Pass Details

Date: 11 May 2021
Orbit: 758 x 776 km, 74.0° (Epoch: 13 June)

Event Time Altitude Azimuth Distance (km) Brightness Sun altitude
Rises 20:44:15 0° 205° (SSW) 3,204 7.0 -15.8°
Reaches altitude 10° 20:46:37 10° 207° (SSW) 2,282 6.2 -16.1°
Maximum altitude 20:51:47 76° 293° (WNW) 785 4.1 -16.6°
Drops below altitude 10° 20:57:01 10° 20° (NNE) 2,299 6.9 -17.1°
Sets 20:59:24 0° 22° (NNE) 3,230 7.7 -17.4°
